{"data":{"norad_id":48924,"epoch":"2026-08-18T05:40:44.791392Z","epoch_age_seconds":2971787,"freshness":"OLD","line1":"1 48924U 21059AX  26230.23662953  .05800316  26793-5  56717-3 0  9997","line2":"2 48924  97.6371  76.5308 0011721 280.5759  79.4219 16.38155079287531","mean_motion":16.38155079,"eccentricity":0.0011721,"inclination_deg":97.6371,"raan_deg":76.5308,"arg_perigee_deg":280.5759,"mean_anomaly_deg":79.4219,"bstar":0.00056717,"rev_number":28753,"period_min":87.903765550636,"perigee_km":163.03894686547,"apogee_km":178.39076538661,"semimajor_km":6548.851856126,"source":"CELESTRAK","updated_at":"2026-08-19T09:00:15.644824Z"}}